User: anonymous   Login
Location: Unspecified
(0.0000°N, 0.0000°E)
Time: 01:59:32
(UTC+00:00)
Language:

STARLINK-36434 - Orbit

View from above orbital plane
View from above orbital plane
View from above satellite
View from above satellite

Ground track
Ground track

The orbit is defined by the following mean orbital elements,

1 67322U          26145.63792591 +.00000000 +00000-0 +71114-3 0 00000
2 67322  43.0000 251.0101 0001089 284.8828  75.1903 15.27604250    04
Epoch (UTC): 25 May 2026 15:18:36
Eccentricity: 0.0001089
inclination: 43.0000°
perigee height: 482 km
apogee height: 484 km
right ascension of ascending node: 251.0101°
argument of perigee: 284.8828°
revolutions per day: 15.27604250
mean anomaly at epoch: 75.1903°

The dashed part of the orbit path shows where the satellite is in the earth's shadow,  

DLR